Météo par heure à Allentaun

Ce jour, 13 Mai, Jeudi

Heure Température Précipitation Vent Pression Humidité
00:00 +7°C° 0 mm 2 m/s 758 mmHg 70%
01:00 +7°C° 0 mm 1 m/s 758 mmHg 72%
02:00 +6°C° 0 mm 1 m/s 758 mmHg 74%
03:00 +6°C° 0 mm 1 m/s 758 mmHg 75%
04:00 +6°C° 0 mm 1 m/s 758 mmHg 76%
05:00 +7°C° 0 mm 1 m/s 759 mmHg 72%
06:00 +8°C° 0 mm 2 m/s 759 mmHg 67%
07:00 +10°C° 0 mm 2 m/s 759 mmHg 63%
08:00 +13°C° 0 mm 2 m/s 759 mmHg 55%
09:00 +14°C° 0 mm 3 m/s 759 mmHg 47%
10:00 +17°C° 0 mm 3 m/s 759 mmHg 39%
11:00 +18°C° 0 mm 3 m/s 759 mmHg 38%
12:00 +18°C° 0 mm 3 m/s 758 mmHg 37%
13:00 +19°C° 0 mm 3 m/s 758 mmHg 35%
14:00 +19°C° 0 mm 3 m/s 758 mmHg 39%
15:00 +19°C° 0 mm 3 m/s 757 mmHg 43%
16:00 +18°C° 0 mm 3 m/s 757 mmHg 47%
17:00 +16°C° 0 mm 3 m/s 757 mmHg 54%
18:00 +15°C° 0 mm 2 m/s 757 mmHg 62%
19:00 +13°C° 0 mm 1 m/s 758 mmHg 70%
20:00 +12°C° 0 mm 1 m/s 758 mmHg 71%
21:00 +11°C° 0 mm 1 m/s 758 mmHg 72%
22:00 +10°C° 0 mm 1 m/s 758 mmHg 74%
23:00 +9°C° 0 mm 1 m/s 758 mmHg 76%

Demain, 14 Mai, Vendredi

Heure Température Précipitation Vent Pression Humidité
00:00 +9°C° 0 mm 1 m/s 758 mmHg 77%
01:00 +8°C° 0 mm 1 m/s 758 mmHg 79%
02:00 +8°C° 0 mm 1 m/s 759 mmHg 80%
03:00 +8°C° 0 mm 1 m/s 759 mmHg 81%
04:00 +7°C° 0 mm 1 m/s 759 mmHg 82%
05:00 +9°C° 0 mm 1 m/s 759 mmHg 77%
06:00 +11°C° 0 mm 1 m/s 759 mmHg 72%
07:00 +12°C° 0 mm 1 m/s 760 mmHg 67%
08:00 +14°C° 0 mm 1 m/s 760 mmHg 60%
09:00 +16°C° 0 mm 2 m/s 759 mmHg 54%
10:00 +19°C° 0 mm 2 m/s 759 mmHg 48%
11:00 +21°C° 0 mm 1 m/s 759 mmHg 45%
12:00 +22°C° 0 mm 1 m/s 759 mmHg 42%
13:00 +23°C° 0 mm 1 m/s 758 mmHg 39%
14:00 +22°C° 0 mm 1 m/s 758 mmHg 41%
15:00 +22°C° 0 mm 1 m/s 758 mmHg 43%
16:00 +21°C° 0 mm 2 m/s 758 mmHg 45%
17:00 +19°C° 0 mm 2 m/s 758 mmHg 51%
18:00 +17°C° 0 mm 2 m/s 758 mmHg 57%
19:00 +16°C° 0 mm 1 m/s 758 mmHg 63%
20:00 +15°C° 0 mm 1 m/s 758 mmHg 66%
21:00 +13°C° 0 mm 1 m/s 758 mmHg 69%
22:00 +12°C° 0 mm 1 m/s 759 mmHg 72%
23:00 +12°C° 0 mm 1 m/s 759 mmHg 75%

Après-demain, 15 Mai, Samedi

Heure Température Précipitation Vent Pression Humidité
00:00 +11°C° 0 mm 1 m/s 759 mmHg 77%
01:00 +10°C° 0 mm 1 m/s 759 mmHg 80%
02:00 +10°C° 0 mm 1 m/s 759 mmHg 81%
03:00 +10°C° 0 mm 1 m/s 759 mmHg 83%
04:00 +9°C° 0 mm 1 m/s 759 mmHg 84%
05:00 +11°C° 0 mm 1 m/s 760 mmHg 79%
06:00 +13°C° 0 mm 1 m/s 760 mmHg 75%
07:00 +14°C° 0 mm 1 m/s 760 mmHg 70%
08:00 +16°C° 0 mm 1 m/s 760 mmHg 63%
09:00 +19°C° 0 mm 1 m/s 760 mmHg 57%
10:00 +21°C° 0 mm 1 m/s 760 mmHg 50%
11:00 +21°C° 0.1 mm 1 m/s 759 mmHg 51%
12:00 +21°C° 0.1 mm 2 m/s 759 mmHg 52%
13:00 +21°C° 0.1 mm 2 m/s 759 mmHg 52%
14:00 +19°C° 0.2 mm 2 m/s 759 mmHg 58%
15:00 +18°C° 0.2 mm 2 m/s 759 mmHg 64%
16:00 +17°C° 0.2 mm 2 m/s 758 mmHg 71%
17:00 +16°C° 0.3 mm 2 m/s 758 mmHg 75%
18:00 +15°C° 0.3 mm 1 m/s 759 mmHg 79%
19:00 +14°C° 0.3 mm 1 m/s 759 mmHg 83%
20:00 +12°C° 0.3 mm 0 m/s 759 mmHg 85%
21:00 +11°C° 0.3 mm 0 m/s 759 mmHg 87%
22:00 +10°C° 0.3 mm 0 m/s 759 mmHg 89%
23:00 +10°C° 0 mm 0 m/s 759 mmHg 89%

16 Mai, Dimanche

Heure Température Précipitation Vent Pression Humidité
00:00 +9°C° 0 mm 0 m/s 759 mmHg 89%
01:00 +9°C° 0 mm 0 m/s 759 mmHg 90%
02:00 +9°C° 0 mm 0 m/s 759 mmHg 90%
03:00 +9°C° 0 mm 0 m/s 759 mmHg 90%
04:00 +9°C° 0 mm 0 m/s 759 mmHg 90%
05:00 +10°C° 0 mm 0 m/s 759 mmHg 88%
06:00 +11°C° 0 mm 0 m/s 760 mmHg 86%
07:00 +12°C° 0 mm 0 m/s 760 mmHg 84%
08:00 +14°C° 0 mm 0 m/s 760 mmHg 77%
09:00 +18°C° 0 mm 1 m/s 760 mmHg 70%
10:00 +20°C° 0 mm 1 m/s 760 mmHg 63%
11:00 +19°C° 0.6 mm 2 m/s 760 mmHg 67%
12:00 +18°C° 0.6 mm 3 m/s 759 mmHg 72%
13:00 +18°C° 0.6 mm 3 m/s 759 mmHg 76%
14:00 +17°C° 1 mm 3 m/s 759 mmHg 80%
15:00 +16°C° 1 mm 3 m/s 759 mmHg 84%
16:00 +16°C° 1 mm 3 m/s 759 mmHg 88%
17:00 +14°C° 0.2 mm 3 m/s 759 mmHg 90%
18:00 +13°C° 0.2 mm 3 m/s 759 mmHg 92%
19:00 +13°C° 0.2 mm 3 m/s 759 mmHg 94%
20:00 +12°C° 0 mm 3 m/s 759 mmHg 96%
21:00 +13°C° 0 mm 2 m/s 760 mmHg 97%
22:00 +12°C° 0 mm 2 m/s 760 mmHg 98%
23:00 +12°C° 0.1 mm 2 m/s 760 mmHg 97%

17 Mai, Lundi

Heure Température Précipitation Vent Pression Humidité
00:00 +12°C° 0.1 mm 2 m/s 759 mmHg 97%
01:00 +12°C° 0.1 mm 2 m/s 759 mmHg 96%
02:00 +12°C° 0 mm 1 m/s 759 mmHg 96%
03:00 +11°C° 0 mm 1 m/s 759 mmHg 96%
04:00 +10°C° 0 mm 0 m/s 759 mmHg 95%
05:00 +11°C° 0 mm 1 m/s 759 mmHg 94%
06:00 +12°C° 0 mm 1 m/s 760 mmHg 92%
07:00 +12°C° 0 mm 1 m/s 760 mmHg 90%
08:00 +13°C° 0 mm 2 m/s 760 mmHg 86%
09:00 +14°C° 0 mm 2 m/s 760 mmHg 82%
10:00 +14°C° 0 mm 3 m/s 759 mmHg 78%
11:00 +16°C° 0 mm 3 m/s 759 mmHg 76%
12:00 +16°C° 0 mm 3 m/s 759 mmHg 75%
13:00 +17°C° 0 mm 3 m/s 758 mmHg 73%
14:00 +17°C° 0 mm 3 m/s 758 mmHg 75%
15:00 +16°C° 0 mm 3 m/s 758 mmHg 77%
16:00 +16°C° 0 mm 3 m/s 758 mmHg 79%
17:00 +15°C° 0 mm 2 m/s 758 mmHg 84%
18:00 +14°C° 0 mm 2 m/s 758 mmHg 89%
19:00 +14°C° 0 mm 2 m/s 758 mmHg 95%
20:00 +13°C° 0 mm 2 m/s 758 mmHg 96%
21:00 +13°C° 0 mm 2 m/s 758 mmHg 97%
22:00 +12°C° 0 mm 1 m/s 759 mmHg 98%
23:00 +12°C° 0 mm 1 m/s 759 mmHg 97%

18 Mai, Mardi

Heure Température Précipitation Vent Pression Humidité
00:00 +13°C° 0 mm 1 m/s 758 mmHg 97%
01:00 +13°C° 0 mm 1 m/s 758 mmHg 96%
02:00 +13°C° 0 mm 2 m/s 758 mmHg 95%
03:00 +13°C° 0 mm 2 m/s 758 mmHg 94%
04:00 +13°C° 0 mm 2 m/s 758 mmHg 93%
05:00 +13°C° 0 mm 2 m/s 759 mmHg 92%
06:00 +13°C° 0 mm 2 m/s 759 mmHg 90%
07:00 +14°C° 0 mm 2 m/s 759 mmHg 89%
08:00 +15°C° 0 mm 2 m/s 759 mmHg 85%
09:00 +16°C° 0 mm 2 m/s 760 mmHg 81%
10:00 +16°C° 0 mm 2 m/s 760 mmHg 77%
11:00 +17°C° 0 mm 2 m/s 760 mmHg 74%
12:00 +18°C° 0 mm 2 m/s 759 mmHg 71%
13:00 +19°C° 0 mm 2 m/s 759 mmHg 68%
14:00 +19°C° 0 mm 2 m/s 759 mmHg 70%
15:00 +20°C° 0 mm 1 m/s 759 mmHg 72%
16:00 +20°C° 0 mm 1 m/s 759 mmHg 74%
17:00 +19°C° 0 mm 1 m/s 759 mmHg 78%
18:00 +18°C° 0 mm 1 m/s 759 mmHg 83%
19:00 +16°C° 0 mm 1 m/s 759 mmHg 87%
20:00 +14°C° 0 mm 0 m/s 759 mmHg 88%
21:00 +13°C° 0 mm 0 m/s 759 mmHg 90%
22:00 +12°C° 0 mm 0 m/s 760 mmHg 92%
23:00 +12°C° 0 mm 0 m/s 760 mmHg 92%
Voir plus

Nous avons besoin de votre consentement

Meteoprog et ses fournisseurs de services peuvent stocker et accéder à des données personnelles telles que des cookies, des identifiants d'appareils ou d'autres technologies similaires sur votre appareil et traiter ces données pour personnaliser le contenu et les publicités, ainsi que pour fournir des fonctionnalités de médias sociaux et analyser le trafic.

  • Stocker et/ou accéder à des informations sur votre appareil

    Des cookies, des identifiants d'appareils ou d'autres informations peuvent être stockés ou accessibles sur votre appareil aux fins indiquées ci-dessus.

  • Annonces et contenus personnalisés, mesure des annonces et des contenus, connaissance de l'audience et développement de produits

    Les annonces et le contenu peuvent être personnalisés en fonction d'un profil. D'autres données peuvent être ajoutées pour mieux personnaliser les annonces et le contenu. Les performances des publicités et du contenu peuvent être mesurées. Il est possible d'obtenir des informations sur le public qui a vu les publicités et le contenu. Ces données peuvent être utilisées pour développer ou améliorer l'expérience de l'utilisateur, les systèmes et les logiciels.

En cliquant sur "J'accepte", vous autorisez l'utilisation de cookies, des identifiants d'appareils, des balises web ou d'autres technologies similaires. Vos paramètres peuvent être modifiés dans le navigateur de votre appareil.

Dans certains cas, des intérêts légitimes peuvent être invoqués plutôt qu'un consentement. Vous pouvez en savoir plus à ce sujet dans notre Politique de confidentialité et de cookies.